User: anonymous   Login
Location: Brainerd
(46.3580°N, 94.2010°W)
Time: 03:42:36
(UTC-05:00)
Language:

CZ-4C R/B - Orbit

View from above orbital plane
View from above orbital plane
View from above satellite
View from above satellite

Ground track
Ground track

The orbit data is extracted from the following two-line orbital elements,

1 32290U 07055B   16146.30141722  .00003176  00000-0  96140-4 0  9992
2 32290  97.5255 239.5462 0072595  73.5409 287.3794 15.32367733472371
Epoch (UTC): 25 May 2016 07:14:02
Eccentricity: 0.0072595
inclination: 97.5255°
perigee height: 419 km
apogee height: 518 km
right ascension of ascending node: 239.5462°
argument of perigee: 73.5409°
revolutions per day: 15.32367733
mean anomaly at epoch: 287.3794°
orbit number at epoch: 47237

The dashed part of the orbit path shows where the satellite is in the earth's shadow,  

DLR